Wind_Speed
12 12 11 12 14 24 35 43 47 46 46 49 51 52 55 55 56 57 59 63 63 61 59 57 53 56 56 53 53 54 53 58 62 63 67 71 74 80 84 89 87 86 84
18 19 13 16 14 16 18 22 34 45 52 53 52 54 54 55 58 57 59 59 61 62 59 55 59 61 58 54 55 56 58 61 63 65 70 74 82 84 91 81 81 83 81
23 20 19 13 14 15 17 17 22 30 38 45 50 54 56 57 57 57 58 59 59 60 60 59 64 55 55 54 55 57 60 62 66 70 74 81 79 77 77 76 76 79 82
32 29 27 21 20 19 19 21 20 20 25 34 40 45 47 49 51 51 52 55 59 61 60 56 56 58 58 56 57 60 66 64 63 62 63 66 68 66 72 75 78 83 88
36 35 35 29 27 25 24 24 26 25 25 25 26 33 42 45 49 52 54 55 56 55 55 54 55 56 52 50 53 54 57 61 61 57 62 64 67 70 75 78 80 84 85
39 38 39 38 35 30 28 29 30 32 31 30 29 29 31 33 35 40 42 46 47 49 50 49 46 49 51 52 55 58 60 60 60 67 69 72 75 78 80 83 84 87 89
44 43 42 44 43 39 36 35 35 35 37 38 38 38 39 38 38 37 38 40 41 43 45 46 49 54 55 57 59 60 62 67 70 72 74 76 80 81 86 89 91 94 96
48 45 47 47 47 49 46 43 42 42 42 44 45 47 47 46 46 45 45 47 47 49 52 53 56 57 62 63 65 69 72 74 75 78 81 85 87 88 92 95 98 99 101
52 52 53 50 50 51 50 52 55 50 50 50 50 53 52 54 54 54 54 54 55 56 60 63 66 68 71 74 77 78 80 82 83 86 89 90 93 95 96 99 103 104 105
60 58 58 61 58 54 50 56 57 56 57 57 56 55 58 58 61 63 64 65 66 67 69 71 74 78 81 83 85 87 87 88 91 94 96 97 99 102 103 106 107 110 112
64 66 66 65 63 63 60 60 61 64 63 63 62 61 61 65 65 68 69 69 70 72 74 76 78 82 85 87 88 90 90 93 97 98 100 103 105 109 112 112 113 114 116
72 70 71 69 69 67 65 64 67 74 71 71 71 66 67 72 71 74 77 77 76 77 80 84 87 90 91 92 93 95 99 101 103 106 109 111 113 115 115 116 116 117 120
80 76 74 73 73 71 72 77 77 77 78 79 74 74 75 77 77 78 81 85 87 87 91 92 96 98 99 99 100 103 106 108 110 112 114 117 118 120 119 120 119 120 124
80 78 78 77 77 76 80 81 81 79 80 80 79 81 83 83 86 88 89 90 93 95 98 100 101 103 104 104 103 105 107 110 115 117 118 120 122 122 120 120 125 129 132
83 83 84 81 76 78 80 80 82 83 84 87 89 88 90 91 92 92 93 96 100 102 103 106 108 109 112 112 115 117 116 118 118 118 121 124 121 123 122 126 128 129 125
86 85 88 86 85 84 87 90 92 92 91 95 99 99 99 97 99 99 101 102 105 106 108 108 112 114 114 117 118 117 115 115 116 117 121 118 119 122 127 128 127 127 127
88 89 91 91 92 93 92 96 97 99 100 97 99 102 102 103 104 106 107 108 111 113 116 115 114 116 119 120 115 114 114 115 117 119 120 122 123 126 124 124 124 126 128
76 82 87 88 93 96 97 99 100 99 99 101 103 103 103 106 107 110 112 112 115 118 116 114 111 111 113 109 108 111 114 117 119 119 120 121 122 121 124 125 126 127 128
74 75 81 91 87 93 97 99 101 102 101 103 102 106 109 105 102 109 114 112 114 117 117 112 113 116 111 110 108 111 113 114 115 117 118 118 122 123 125 126 126 125 121
75 78 85 87 84 87 87 92 89 91 89 96 101 100 104 104 104 108 114 114 115 118 118 117 116 112 111 112 113 113 113 116 117 118 121 122 123 124 124 124 120 114 111
78 79 83 86 87 88 90 91 94 97 98 101 103 108 111 114 115 113 113 115 118 120 117 113 113 112 110 111 113 114 115 118 121 120 122 122 121 119 115 110 105 101 96
78 79 80 80 81 84 86 91 100 104 108 108 109 111 113 114 115 116 116 115 112 111 111 111 110 110 112 114 115 118 119 120 120 120 119 116 112 106 101 97 94 91 87
78 80 81 84 86 90 93 95 97 102 106 109 110 111 111 113 113 112 111 110 109 106 107 110 111 112 115 118 118 119 119 119 117 112 106 101 97 94 91 87 83 81 77
80 83 86 88 91 93 96 99 102 104 105 109 112 112 110 109 109 106 102 103 105 106 107 111 115 116 117 118 118 117 113 107 102 97 93 90 86 84 81 78 75 72 69
82 85 89 92 93 97 99 101 103 106 109 109 106 105 104 100 100 103 106 108 109 110 111 113 116 117 114 110 105 101 96 92 88 87 83 80 77 75 73 71 69 67 64
88 88 90 94 97 97 100 101 103 104 104 104 104 102 104 105 104 104 107 108 108 110 111 109 107 103 99 96 93 89 86 83 81 78 75 73 72 70 67 65 62 59 56
Wind_Direction
323 297 296 292 281 261 255 253 253 252 252 254 259 263 265 266 266 269 269 273 275 278 279 280 284 286 288 287 289 293 294 298 301 298 296 298 296 289 290 294 298 300 302
288 302 316 286 293 291 281 277 271 264 260 259 261 262 262 264 266 270 269 272 274 274 272 278 281 284 288 286 289 292 297 296 297 295 290 292 284 287 289 295 296 299 303
285 294 300 314 305 301 304 302 284 273 267 264 262 261 263 264 264 265 267 269 272 273 275 276 278 281 283 285 287 291 292 293 289 288 283 284 289 294 298 298 300 300 302
282 281 292 295 302 305 306 308 304 302 288 277 272 268 268 270 270 267 264 267 270 273 277 278 279 280 282 287 288 285 285 280 285 290 296 298 298 296 298 301 300 301 303
280 280 283 283 290 293 298 295 298 304 309 305 294 279 274 273 272 272 269 269 268 270 270 274 274 276 280 285 287 286 288 290 291 293 298 297 296 297 298 300 301 304 305
272 278 277 273 279 288 285 293 289 288 290 294 294 300 298 291 286 280 273 271 271 271 273 275 280 287 291 291 290 290 290 288 287 294 295 297 297 298 299 300 301 303 303
270 272 272 277 273 277 277 284 281 288 290 290 290 294 297 297 300 299 296 290 285 286 287 288 287 287 289 291 291 289 289 290 291 292 293 294 295 298 299 301 301 301 304
271 271 272 273 280 277 277 278 279 284 286 286 289 291 295 292 293 291 293 292 290 288 287 283 285 285 285 287 288 288 289 287 289 291 293 296 298 301 302 302 301 303 304
270 273 271 273 273 277 273 278 282 281 284 288 291 291 291 292 291 291 289 287 285 284 284 284 285 285 287 287 287 287 287 288 289 291 293 295 298 299 301 300 300 303 303
269 269 273 274 275 274 277 272 276 280 282 283 285 288 290 290 292 292 294 293 289 289 287 285 285 286 287 288 287 287 287 288 289 290 293 295 296 298 299 299 299 301 303
266 266 267 271 272 274 275 276 276 274 276 278 279 281 285 285 286 287 289 288 288 287 288 287 287 287 286 286 286 286 286 287 289 289 292 293 295 298 298 299 298 299 302
263 265 265 266 270 271 273 274 275 280 279 283 280 277 281 284 281 283 284 286 286 286 285 285 284 284 286 286 285 285 285 287 288 290 293 294 295 296 297 298 298 298 301
258 263 263 265 266 268 270 271 272 276 280 280 279 279 279 281 281 283 283 283 283 283 286 286 286 287 287 286 287 288 288 289 291 292 293 293 295 296 297 298 298 298 300
258 260 261 265 265 269 270 270 272 273 275 275 276 276 277 278 277 279 280 281 283 283 283 284 286 288 288 289 289 288 288 288 290 291 292 293 294 297 297 296 296 297 298
261 261 264 265 265 265 267 268 270 272 275 276 277 278 279 277 277 279 280 281 282 282 283 284 285 286 287 289 290 291 291 290 291 292 292 294 294 295 296 298 297 298 298
257 256 260 260 262 263 266 268 268 270 273 275 276 278 281 280 279 279 280 281 283 285 285 285 286 289 290 291 292 292 292 290 289 290 292 293 294 295 296 296 296 297 299
260 260 261 263 264 265 266 266 268 271 275 276 275 278 280 281 280 281 282 282 282 284 286 290 288 289 291 292 291 291 291 291 291 292 292 294 295 295 294 295 296 299 301
259 261 262 261 261 264 267 268 269 272 274 275 276 279 280 281 283 282 283 282 283 286 287 288 289 290 292 290 289 288 289 290 291 292 293 293 292 294 295 297 299 300 301
257 255 255 261 263 265 267 270 271 272 274 277 277 277 279 280 278 281 284 287 286 287 290 291 292 294 292 291 291 291 291 292 292 291 292 293 294 296 298 299 300 301 302
254 256 254 264 265 265 265 266 268 271 272 270 273 276 277 281 281 280 284 287 286 288 290 291 293 294 292 292 292 292 292 292 294 294 294 295 297 298 300 301 300 299 298
256 256 257 261 263 265 263 262 263 264 266 269 270 271 273 276 278 280 282 284 286 286 291 291 290 293 294 292 292 293 293 293 293 295 296 297 300 300 299 299 298 297 297
258 259 259 259 261 262 262 260 260 263 266 269 272 274 277 280 282 285 286 288 291 290 290 292 292 291 292 293 293 292 293 295 296 298 299 299 298 298 297 296 297 296 297
257 258 258 259 262 266 267 267 268 269 270 272 274 276 278 280 283 287 288 289 290 290 290 291 292 292 291 292 294 295 296 298 299 298 297 297 297 297 297 297 296 296 297
260 259 260 261 263 267 268 268 268 270 272 273 275 278 282 285 285 289 289 289 289 290 289 290 290 292 293 294 296 297 297 297 297 297 296 296 296 296 296 297 296 297 297
262 261 260 263 265 268 269 270 271 272 274 277 281 281 286 288 287 288 289 289 287 287 289 291 293 295 296 295 296 296 296 296 296 296 296 297 297 297 297 298 297 297 296
265 264 265 266 268 268 269 270 275 278 279 280 284 285 286 287 286 285 285 286 289 291 293 294 294 295 296 296 296 297 297 297 297 297 298 298 298 298 298 298 296 295 295
Height
10571 10568 10566 10565 10564 10563 10563 10563 10565 10566 10566 10566 10566 10566 10567 10566 10566 10567 10564 10563 10562 10559 10556 10553 10549 10546 10544 10540 10536 10531 10528 10523 10518 10514 10510 10504 10496 10494 10492 10486 10477 10468 10459
10565 10564 10562 10560 10558 10556 10555 10554 10554 10553 10553 10553 10553 10552 10552 10553 10553 10553 10551 10550 10548 10547 10545 10542 10540 10536 10533 10528 10523 10518 10512 10508 10504 10499 10495 10491 10489 10484 10477 10469 10459 10450 10440
10558 10557 10556 10555 10552 10549 10548 10546 10544 10542 10541 10541 10540 10540 10540 10540 10540 10539 10537 10535 10533 10533 10532 10530 10527 10523 10518 10513 10509 10505 10499 10494 10491 10488 10486 10481 10474 10467 10458 10450 10441 10431 10422
10550 10549 10547 10546 10545 10541 10537 10537 10536 10534 10531 10529 10529 10527 10526 10524 10523 10522 10521 10520 10518 10517 10515 10513 10510 10507 10503 10499 10494 10491 10488 10486 10480 10474 10467 10460 10454 10448 10439 10431 10423 10415 10403
10540 10539 10537 10537 10536 10534 10532 10530 10526 10524 10522 10520 10519 10517 10514 10513 10510 10507 10506 10504 10504 10501 10500 10498 10494 10492 10489 10484 10480 10477 10473 10467 10461 10455 10451 10445 10437 10429 10421 10412 10404 10394 10385
10530 10529 10527 10526 10525 10524 10523 10521 10518 10516 10513 10512 10509 10508 10506 10502 10499 10495 10494 10493 10491 10488 10485 10483 10480 10476 10472 10468 10464 10460 10456 10451 10445 10440 10434 10427 10419 10411 10401 10394 10385 10376 10366
10518 10518 10516 10515 10514 10513 10513 10511 10508 10507 10504 10501 10499 10497 10493 10491 10487 10485 10482 10482 10479 10476 10472 10468 10465 10461 10457 10454 10449 10444 10441 10435 10429 10423 10417 10410 10400 10392 10382 10373 10364 10354 10344
10503 10505 10505 10504 10503 10502 10500 10496 10494 10493 10492 10490 10487 10485 10482 10477 10475 10472 10468 10467 10465 10461 10457 10455 10451 10448 10443 10438 10434 10429 10424 10417 10411 10404 10397 10388 10379 10371 10360 10351 10340 10332 10321
10488 10488 10489 10490 10490 10489 10487 10483 10480 10478 10477 10475 10473 10471 10468 10465 10461 10458 10454 10453 10450 10447 10443 10439 10435 10431 10427 10421 10415 10410 10404 10398 10391 10383 10376 10367 10358 10349 10339 10329 10317 10307 10297
10471 10472 10473 10473 10474 10475 10473 10469 10466 10464 10461 10459 10456 10455 10453 10451 10448 10443 10439 10437 10435 10431 10427 10422 10418 10413 10408 10402 10396 10389 10383 10377 10369 10362 10354 10346 10336 10327 10315 10303 10292 10281 10269
10455 10454 10455 10456 10457 10457 10458 10457 10452 10447 10445 10444 10442 10440 10438 10436 10433 10429 10425 10422 10418 10414 10409 10404 10398 10392 10386 10381 10375 10367 10360 10354 10347 10338 10330 10321 10312 10302 10292 10280 10267 10255 10243
10437 10438 10439 10441 10441 10440 10440 10440 10435 10429 10429 10427 10425 10424 10422 10420 10416 10413 10408 10403 10399 10394 10389 10382 10376 10370 10364 10358 10352 10345 10338 10331 10322 10314 10305 10296 10285 10275 10264 10253 10240 10227 10215
10419 10420 10420 10422 10423 10425 10424 10418 10416 10414 10411 10409 10408 10407 10404 10402 10398 10394 10389 10384 10379 10374 10365 10360 10355 10349 10343 10336 10328 10321 10314 10305 10297 10287 10278 10267 10256 10245 10234 10223 10210 10198 10187
10401 10401 10400 10402 10405 10405 10402 10399 10398 10397 10393 10390 10389 10388 10385 10381 10377 10374 10370 10363 10357 10351 10344 10337 10331 10324 10317 10309 10302 10293 10285 10276 10267 10257 10246 10236 10226 10215 10203 10191 10180 10167 10154
10379 10382 10382 10381 10382 10383 10382 10379 10377 10375 10373 10370 10367 10365 10361 10357 10352 10350 10347 10342 10334 10325 10318 10311 10304 10297 10290 10282 10273 10265 10256 10246 10236 10226 10216 10206 10194 10184 10172 10161 10147 10135 10123
10353 10356 10357 10359 10359 10359 10359 10358 10354 10354 10353 10347 10341 10339 10338 10332 10326 10321 10317 10312 10306 10298 10290 10284 10277 10270 10261 10252 10244 10234 10225 10216 10205 10194 10185 10174 10163 10152 10141 10128 10117 10105 10092
10334 10336 10336 10338 10338 10337 10336 10332 10330 10329 10327 10323 10318 10315 10311 10306 10299 10293 10288 10283 10277 10270 10262 10255 10246 10237 10229 10221 10211 10202 10192 10184 10172 10162 10152 10143 10132 10121 10109 10096 10083 10071 10057
10315 10314 10314 10314 10310 10310 10310 10308 10305 10303 10301 10295 10292 10289 10284 10276 10270 10263 10259 10252 10248 10241 10236 10227 10218 10208 10199 10189 10180 10170 10161 10152 10142 10132 10122 10111 10099 10087 10075 10061 10048 10035 10023
10291 10293 10287 10285 10290 10289 10287 10284 10279 10276 10275 10270 10266 10261 10257 10253 10246 10238 10231 10224 10217 10210 10203 10195 10187 10178 10169 10160 10150 10140 10130 10120 10109 10098 10087 10076 10064 10052 10038 10025 10013 10001 9988
10270 10269 10267 10266 10266 10264 10262 10258 10255 10253 10251 10246 10240 10236 10230 10224 10219 10212 10206 10197 10188 10181 10173 10164 10157 10148 10138 10128 10119 10108 10096 10085 10075 10064 10052 10040 10027 10014 10002 9991 9979 9967 9956
10248 10249 10247 10245 10243 10242 10241 10238 10234 10228 10224 10220 10215 10209 10203 10198 10191 10184 10177 10167 10160 10154 10145 10136 10127 10118 10107 10096 10086 10075 10064 10052 10040 10028 10016 10002 9991 9980 9969 9958 9947 9936 9927
10226 10225 10224 10222 10220 10218 10215 10212 10208 10204 10199 10193 10187 10182 10177 10172 10166 10158 10150 10142 10132 10123 10114 10105 10096 10086 10076 10064 10053 10041 10028 10017 10004 9992 9981 9970 9960 9949 9938 9927 9917 9908 9899
10204 10202 10201 10199 10197 10194 10191 10187 10183 10179 10174 10168 10161 10155 10150 10141 10134 10128 10119 10110 10103 10094 10083 10074 10063 10052 10041 10030 10018 10006 9994 9982 9971 9960 9950 9940 9930 9920 9910 9900 9892 9883 9875
10182 10181 10178 10175 10172 10169 10165 10160 10156 10152 10147 10140 10133 10127 10120 10113 10106 10099 10090 10081 10072 10062 10051 10040 10029 10018 10007 9995 9985 9974 9963 9952 9941 9930 9921 9910 9902 9892 9884 9876 9867 9859 9851
10158 10156 10154 10150 10146 10142 10137 10133 10128 10123 10116 10111 10104 10096 10092 10084 10075 10067 10058 10049 10039 10028 10018 10007 9995 9984 9974 9964 9954 9943 9933 9924 9912 9903 9893 9885 9876 9867 9860 9852 9845 9837 9830
10132 10129 10126 10123 10119 10114 10110 10105 10101 10095 10087 10081 10076 10069 10061 10053 10044 10034 10024 10015 10005 9995 9985 9974 9964 9954 9944 9935 9925 9915 9906 9896 9887 9877 9868 9860 9852 9844 9837 9831 9824 9818 9812